Weather History for Tekamah, NE

Change the Weather History Date:

Wednesday, June 19, 2013

  Actual Average Record
Temperature  
Mean Temperature 75 °F -  
Max Temperature 88 °F 85 °F 100 °F (1956)
Min Temperature 62 °F 60 °F 44 °F (1976)
Cooling Degree Days 10    
Growing Degree Days 25 (Base 50)    
Moisture  
Dew Point 62 °F    
Average Humidity 65    
Maximum Humidity 93    
Minimum Humidity 42    
Precipitation  
Precipitation 0.00 in - - ()
Sea Level Pressure  
Sea Level Pressure 29.93 in    
Wind  
Wind Speed 7 mph (SSE)    
Max Wind Speed 20 mph    
Max Gust Speed 29 mph    
Visibility 10 miles    
Events      
Averages and records for this station are not official NWS values.
T = Trace of Precipitation, MM = Missing Value Source: NWS Daily Summary

Daily Weather History Graph

Daily Weather History Graph

Search for Another Location

Airport:

Trip Planner

Search our weather history database for the weather conditions in past years. The results will help you decide how hot, cold, wet, or windy it might be!

Date:

Astronomy

Jun. 19, 2013 Rise Set
Actual Time 5:49 AM CDT 9:02 PM CDT
Civil Twilight 5:15 AM CDT 9:36 PM CDT
Nautical Twilight 4:31 AM CDT 10:21 PM CDT
Astronomical Twilight 3:38 AM CDT 11:14 PM CDT
Moon 4:54 PM CDT (6/19) 2:38 AM CDT (6/19)
Length of Visible Light 16h 21m
Length of Day
15h 12m
Waxing Gibbous, 80% of the Moon is Illuminated
Jun 19
Waxing Gibbous
Jun 23
Full
Jun 29
Last Quarter
Jul 8
New
Jul 15
First Quarter

Hourly Weather History & Observations

Time (CDT) Temp. Heat Index Dew Point Humidity Pressure Visibility Wind Dir Wind Speed Gust Speed Precip Events Conditions
12:54 AM 66.0 °F - 61.0 °F 84% 29.96 in 10.0 mi Calm Calm - N/A   Clear
1:54 AM 64.9 °F - 61.0 °F 87% 29.95 in 10.0 mi Calm Calm - N/A   Clear
2:54 AM 63.0 °F - 60.1 °F 90% 29.96 in 10.0 mi SSW 3.5 mph - N/A   Clear
3:54 AM 62.1 °F - 60.1 °F 93% 29.95 in 10.0 mi SSE 3.5 mph - N/A   Clear
4:54 AM 63.0 °F - 60.1 °F 90% 29.96 in 9.0 mi Calm Calm - N/A   Mostly Cloudy
5:54 AM 63.0 °F - 61.0 °F 93% 29.97 in 7.0 mi Calm Calm - N/A   Mostly Cloudy
6:54 AM 64.9 °F - 61.0 °F 87% 29.97 in 10.0 mi Calm Calm - N/A   Partly Cloudy
7:54 AM 68.0 °F - 63.0 °F 84% 29.98 in 10.0 mi SSE 3.5 mph - N/A   Clear
8:54 AM 72.0 °F - 63.0 °F 73% 29.98 in 10.0 mi SSE 12.7 mph - N/A   Partly Cloudy
9:54 AM 78.1 °F - 62.1 °F 58% 29.96 in 10.0 mi SE 16.1 mph - N/A   Clear
10:54 AM 78.1 °F - 62.1 °F 58% 29.96 in 10.0 mi SE 15.0 mph - N/A   Clear
11:54 AM 82.9 °F 84.6 °F 64.9 °F 54% 29.95 in 10.0 mi SSE 16.1 mph 20.7 mph N/A   Clear
12:54 PM 84.0 °F 85.4 °F 64.0 °F 51% 29.94 in 10.0 mi SSE 18.4 mph 24.2 mph N/A   Partly Cloudy
1:54 PM 86.0 °F 87.3 °F 64.0 °F 48% 29.91 in 10.0 mi SSE 19.6 mph 24.2 mph N/A   Clear
2:54 PM 86.0 °F 87.3 °F 64.0 °F 48% 29.91 in 10.0 mi SE 15.0 mph 23.0 mph N/A   Clear
3:54 PM 88.0 °F 89.6 °F 64.9 °F 46% 29.90 in 10.0 mi SSE 19.6 mph 24.2 mph N/A   Scattered Clouds
4:54 PM 88.0 °F 89.3 °F 64.0 °F 45% 29.88 in 10.0 mi SE 19.6 mph 27.6 mph N/A   Partly Cloudy
5:54 PM 88.0 °F 88.4 °F 62.1 °F 42% 29.86 in 10.0 mi SSE 19.6 mph 28.8 mph N/A   Clear
6:54 PM 86.0 °F 87.3 °F 64.0 °F 48% 29.86 in 9.0 mi SSE 13.8 mph 24.2 mph N/A   Clear
7:54 PM 84.9 °F 85.4 °F 62.1 °F 46% 29.85 in 10.0 mi SSE 16.1 mph - N/A   Clear
8:54 PM 81.0 °F 81.9 °F 62.1 °F 52% 29.86 in 10.0 mi SSE 10.4 mph - N/A   Clear
9:54 PM 77.0 °F - 63.0 °F 62% 29.88 in 10.0 mi SE 9.2 mph - N/A   Clear
10:54 PM 77.0 °F - 63.0 °F 62% 29.90 in 10.0 mi SE 11.5 mph - N/A   Clear
11:54 PM 73.9 °F - 63.0 °F 68% 29.91 in 10.0 mi SE 11.5 mph - N/A   Clear